{"data":{"norad_id":64352,"intl_designator":"2025-126J","name":"STARLINK-34385","alt_names":[],"object_type":"PAYLOAD","status":"ACTIVE","operator":null,"country":"US","launch_date":"2025-06-13","launch_site_code":"AFWTR","launch_vehicle":null,"mission":null,"orbit_class":"UNKNOWN","rcs_meters":null,"size_class":null,"mass_kg":null,"dimensions":null,"purposes":["comms"],"wikipedia_slug":null,"has_3d_model":false,"image_url":null,"decayed_at":null,"tle_current":{"epoch":"2026-05-25T03:55:38.178912Z","epoch_age_seconds":75052,"freshness":"FRESH","line1":"1 64352U 25126J   26145.16363633  .00003137  00000+0  27050-3 0  9995","line2":"2 64352  70.0003 201.7703 0003976 268.0801  91.9903 14.98336861 52133","mean_motion":14.98336861,"eccentricity":0.0003976,"inclination_deg":70.0003,"raan_deg":201.7703,"arg_perigee_deg":268.0801,"mean_anomaly_deg":91.9903,"bstar":0.0002705,"rev_number":5213,"period_min":96.106559044335,"perigee_km":569.27128569128,"apogee_km":574.79806220641,"semimajor_km":6950.1716739488,"source":"CELESTRAK","updated_at":"2026-05-25T13:38:20.402197Z"}}}